Weather History for Santa Rosa, CA

Change the Weather History Date:

Friday, October 24, 2014

  Actual Average Record
Temperature  
Mean Temperature 61 °F 59 °F  
Max Temperature 74 °F 74 °F 92 °F (2003)
Min Temperature 48 °F 44 °F 37 °F (1999)
Degree Days  
Heating Degree Days 4    
Month to date heating degree days 41  
Since 1 July heating degree days 55  
Cooling Degree Days 0    
Month to date cooling degree days 64  
Year to date cooling degree days 497  
Growing Degree Days 10 (Base 50)    
Moisture  
Dew Point 52 °F    
Average Humidity 77    
Maximum Humidity 100    
Minimum Humidity 53    
Precipitation  
Precipitation T in 0.10 in 2.04 in (2010)
Month to date precipitation 0.11 1.29  
Year to date precipitation 13.52 23.82  
Since 1 July precipitation 0.95 1.73  
Sea Level Pressure  
Sea Level Pressure 29.93 in    
Wind  
Wind Speed 4 mph (South)    
Max Wind Speed 15 mph    
Max Gust Speed 22 mph    
Visibility 4 miles    
Events Fog , Rain    
T = Trace of Precipitation, MM = Missing Value Source: NWS Daily Summary

Daily Weather History Graph

Daily Weather History Graph

Search for Another Location

Airport:

Trip Planner

Search our weather history database for the weather conditions in past years. The results will help you decide how hot, cold, wet, or windy it might be!

Date:

Astronomy

Oct. 24, 2014 Rise Set
Actual Time 7:29 AM PDT 6:20 PM PDT
Civil Twilight 7:02 AM PDT 6:47 PM PDT
Nautical Twilight 6:31 AM PDT 7:18 PM PDT
Astronomical Twilight 6:00 AM PDT 7:49 PM PDT
Moon 8:13 AM PDT (10/24) 7:05 PM PDT (10/24)
Length of Visible Light 11h 45m
Length of Day
10h 51m
New Moon, 1% of the Moon is Illuminated
Oct 24
New Moon
Oct 30
First Quarter
Nov 6
Full
Nov 14
Last Quarter
Nov 22
New

Hourly Weather History & Observations

Time (PDT) Temp. Dew Point Humidity Pressure Visibility Wind Dir Wind Speed Gust Speed Precip Events Conditions
12:53 AM 53.1 °F 52.0 °F 96% 29.96 in 10.0 mi Calm Calm - N/A   Clear
1:15 AM 53.6 °F 51.8 °F 94% 29.97 in 1.8 mi Calm Calm - N/A   Clear
1:27 AM 53.6 °F 51.8 °F 94% 29.97 in 3.0 mi Calm Calm - N/A   Clear
1:40 AM 53.6 °F 51.8 °F 94% 29.97 in 4.0 mi Calm Calm - N/A   Partly Cloudy
1:53 AM 50.0 °F 50.0 °F 100% 29.95 in 6.0 mi Calm Calm - N/A   Mostly Cloudy
1:58 AM 51.8 °F 50.0 °F 94% 29.97 in 1.8 mi Calm Calm - N/A   Mostly Cloudy
2:07 AM 51.8 °F 51.8 °F 100% 29.97 in 0.5 mi NW 3.5 mph - N/A Fog Fog
2:39 AM 51.8 °F 50.0 °F 94% 29.97 in 0.5 mi NW 3.5 mph - N/A Fog Fog
2:53 AM 50.0 °F 50.0 °F 100% 29.95 in 1.0 mi Calm Calm - N/A   Mist
2:57 AM 50.0 °F 50.0 °F 100% 29.96 in 0.5 mi North 3.5 mph - N/A Fog Fog
3:13 AM 51.8 °F 51.8 °F 100% 29.96 in 1.0 mi Calm Calm - N/A   Mist
3:32 AM 51.8 °F 50.0 °F 94% 29.96 in 0.8 mi Calm Calm - N/A   Mostly Cloudy
3:43 AM 50.0 °F 50.0 °F 100% 29.96 in 1.0 mi NNW 4.6 mph - N/A   Scattered Clouds
3:53 AM 50.0 °F 48.9 °F 96% 29.94 in 1.0 mi NNW 3.5 mph - N/A   Mist
4:02 AM 51.8 °F 50.0 °F 94% 29.96 in 0.8 mi Calm Calm - N/A   Mist
4:17 AM 50.0 °F 50.0 °F 100% 29.95 in 1.2 mi Calm Calm - N/A   Scattered Clouds
4:46 AM 51.8 °F 48.2 °F 88% 29.95 in 0.8 mi Calm Calm - N/A   Mist
4:49 AM 50.0 °F 48.2 °F 94% 29.95 in 1.2 mi Calm Calm - N/A   Scattered Clouds
4:53 AM 48.9 °F 48.9 °F 100% 29.93 in 4.0 mi Calm Calm - N/A   Scattered Clouds
5:03 AM 48.2 °F 48.2 °F 100% 29.95 in 2.5 mi Calm Calm - N/A   Mostly Cloudy
5:08 AM 48.2 °F 48.2 °F 100% 29.95 in 0.8 mi Calm Calm - N/A   Mist
5:16 AM 48.2 °F 48.2 °F 100% 29.95 in 2.0 mi Calm Calm - N/A   Overcast
5:21 AM 48.2 °F 48.2 °F 100% 29.95 in 1.0 mi Calm Calm - N/A   Mist
5:27 AM 48.2 °F 48.2 °F 100% 29.95 in 0.2 mi Calm Calm - N/A Fog Fog
5:40 AM 48.2 °F 48.2 °F 100% 29.95 in 0.5 mi Calm Calm - N/A Fog Fog
5:50 AM 48.2 °F 48.2 °F 100% 29.95 in 0.2 mi Calm Calm - N/A Fog Fog
5:53 AM 48.9 °F 48.9 °F 100% 29.93 in 0.2 mi Calm Calm - N/A Fog Fog
6:19 AM 48.2 °F 48.2 °F 100% 29.95 in 0.5 mi Calm Calm - N/A Fog Fog
6:53 AM 50.0 °F 48.9 °F 96% 29.93 in 0.2 mi Calm Calm - N/A Fog Fog
7:53 AM 52.0 °F 51.1 °F 97% 29.93 in 0.2 mi Calm Calm - N/A Fog Fog
8:53 AM 53.1 °F 53.1 °F 100% 29.95 in 0.2 mi NW 3.5 mph - N/A Fog Fog
9:53 AM 55.0 °F 54.0 °F 96% 29.95 in 0.2 mi Calm Calm - N/A Fog Fog
10:20 AM 57.2 °F 55.4 °F 94% 29.96 in 1.0 mi Calm Calm - N/A   Mist
10:31 AM 57.2 °F 55.4 °F 94% 29.96 in 2.0 mi Calm Calm - N/A   Overcast
10:41 AM 57.2 °F 55.4 °F 94% 29.96 in 4.0 mi Calm Calm - N/A   Overcast
10:50 AM 57.2 °F 55.4 °F 94% 29.95 in 10.0 mi Calm Calm - N/A   Scattered Clouds
10:53 AM 59.0 °F 55.9 °F 90% 29.94 in 10.0 mi Calm Calm - N/A   Scattered Clouds
11:53 AM 66.0 °F 54.0 °F 65% 29.93 in 10.0 mi Calm Calm - N/A   Scattered Clouds
12:53 PM 70.0 °F 53.1 °F 55% 29.90 in 10.0 mi Variable 3.5 mph - N/A   Scattered Clouds
1:53 PM 73.0 °F 55.0 °F 53% 29.87 in 10.0 mi South 6.9 mph - N/A   Scattered Clouds
2:53 PM 72.0 °F 55.9 °F 57% 29.86 in 10.0 mi SSW 10.4 mph - N/A   Scattered Clouds
3:53 PM 69.1 °F 55.9 °F 63% 29.86 in 10.0 mi SW 11.5 mph 18.4 mph N/A   Scattered Clouds
4:53 PM 66.9 °F 55.0 °F 66% 29.86 in 10.0 mi Variable 5.8 mph - N/A   Scattered Clouds
5:53 PM 64.9 °F 55.0 °F 70% 29.85 in 10.0 mi South 9.2 mph - N/A   Mostly Cloudy
6:25 PM 64.4 °F 55.4 °F 73% 29.86 in 10.0 mi South 9.2 mph - 0.00 in Rain Light Rain
6:53 PM 64.0 °F 55.0 °F 73% 29.86 in 10.0 mi SSE 5.8 mph - 0.00 in   Mostly Cloudy
7:53 PM 62.1 °F 55.0 °F 78% 29.86 in 10.0 mi SSE 6.9 mph - N/A   Mostly Cloudy
8:53 PM 61.0 °F 55.0 °F 81% 29.86 in 10.0 mi South 3.5 mph - N/A   Mostly Cloudy
9:09 PM 60.8 °F 55.4 °F 82% 29.88 in 10.0 mi SE 4.6 mph - N/A   Mostly Cloudy
9:53 PM 62.1 °F 55.0 °F 78% 29.87 in 10.0 mi SSE 5.8 mph - N/A   Overcast
10:53 PM 63.0 °F 55.9 °F 78% 29.88 in 10.0 mi SSE 4.6 mph - N/A   Overcast
11:30 PM 62.6 °F 55.4 °F 77% 29.88 in 10.0 mi SSE 8.1 mph - N/A   Overcast
11:53 PM 63.0 °F 55.0 °F 75% 29.86 in 10.0 mi SSE 8.1 mph - N/A   Overcast